STARLINK-35389, 66434

Orbit data source: Space-Track

STARLINK-35389, 66434 is a payload satellite owned by SpaceX/Seattle (US) in LEO that was launched on Tue, 11 Nov 2025 UTC via an FALCON 9 launch vehicle from the Air Force Eastern Test Range (AFETR). Payload-class satellites include a variety of spacecraft equipped with specific instruments for various scientific and technological missions. These include communications satellites like Starlink; space stations such as the ISS; scientific satellites like the Hubble; Earth observation satellites from companies like Planet Labs, Umbra, and HawkEye 360; GPS; miniature CubeSats for education and research; and military/defense satellites.

Loading next visibility...
Identifier
66434, 2025-259N
Orbit
LEO
Country
Flag of USUS
Related business
Manufacturer
SpaceX/Seattle
Mission
Operational Commercial Communications
Bus & Motor
STARLINK V2MO, Unknown motor
Mass
575 kg wet, ~530 kg dry
Launch date (UTC)
2025-11-11 (7 months ago)
Launch vehicle
FALCON 9
Launch site
Air Force Eastern Test Range (AFETR)
Object type
Payload
Rocket body
Debris
Shape & HBR
Box + 2 Pan, 17.7 m
Radar Cross Section
36.964 m², Large (>1 m²)

Expand to show TLE details & history
Last TLE update: 1 day ago

TLE from 1 day ago
0 STARLINK-35389
1 66434U 25259N   26149.43528780  .00014592  00000-0  53851-3 0  9991
2 66434  42.9994 178.0452 0002019 284.1532  75.9095 15.27593308 31840
Epoch: 2026-05-29T10:26Z
TLE epoch observation values (Epoch: 2026-05-29T10:26:48.865Z)
Latitude
-0.00005°
Longitude
134.37583°
Altitude
482.448 km
Speed
7.626 km/s
True Right ascension
11h 52m 10s
True Declination
0° 00' 00"
Sunlit
Object was in daylight at epoch
Visualization orbit readout
Latitude
Unknown
Longitude
Unknown
Altitude
Unknown
Speed
Unknown
Apparent Right ascension
Unknown
Apparent Declination
Unknown
Sunlit
N/A
Visualization observer readout
Local Sidereal Time
02:00:32
Azimuth
Unknown
Elevation
Unknown
Doppler factor
Unknown
Orbital elements
Apogee altitude
486.34 km
Perigee altitude
483.569 km
Semi-major axis
6,863.092 km
Eccentricity
0.0002
Inclination
42.9994°
RAAN
178.0452°
Arg. of periapsis
284.1532°
True anomaly
75.93194°
Mean anomaly
75.9095°
Eccentric anomaly
75.92072°
Mean motion
3.81736 °/min
Orbital period
94.31 mins
BSTAR
0.00053851
Loading maneuver chart data...
Computing Atmospheric mass density...
Loading historical data...
Loading historical data...
Loading historical data...
Loading historical data...
Loading historical data...
Loading historical data...
Loading historical data...

Documentation

Showing up to 5 results
|